Location: Diguira
(13.1838°N, 4.9109°W)
Time: 15:26:57
(UTC+00:00)

ARIANE 5 R/B - Pass Details

Date: 18 September 2020
Orbit: 449 x 35399 km, 6.8° (Epoch: 19 October)

Event Time Altitude Azimuth Distance (km) Brightness Sun altitude
Rises 10:23:07 0° 258° (WSW) 12,247 7.9 60.3°
Reaches altitude 10° 10:31:07 10° 255° (WSW) 13,317 8.2 62.1°
Drops below altitude 10° 17:46:14 10° 261° (W) 31,655 12.6 7.0°
Maximum altitude 20:04:29 60° 188° (S) 2,000 4.0 -26.6°
Enters shadow 20:06:43 45° 133° (SE) 1,796 3.4 -27.1°
